Voltar ao catálogo

COSMOS 1275 DEB

LostPO
NORAD 42194·DEBRIS·🇷🇺 Russia

Lançado Jun 4, 1981 de Plesetsk Cosmodrome

Loading…

Próximas Passagens (próximas 24 horas)

TLE

ObsoletoSource: Space-Track

Época: Feb 15, 2025, 09:41 UTC

1 42194U 81053TJ  25046.40404767  .00002695  00000-0  25757-2 0  9996
2 42194  82.8257  90.5624 0201355  91.4820 270.9409 13.71529663560263

Acompanhe COSMOS 1275 DEB em tempo real com AllMySat

Download on the App Store